Tracking 19792 objects as of 16-Jul-2019
HD Live streaming from Space Station
objects crossing your sky now

WESTFORD NEEDLES

Track WESTFORD NEEDLES now!
10-day predictions
WESTFORD NEEDLES is classified as:


NORAD ID: 2375
Int'l Code: 1963-014W
Perigee: 1,627.5 km
Apogee: 5,499.9 km
Inclination: 86.2 °
Period: 164.2 minutes
Semi major axis: 9934 km
RCS: 0.1605 m2 (medium)
Launch date: May 9, 1963
Source: United States (US)
Launch site: AIR FORCE WESTERN TEST RANGE (AFWTR)
aabbcc
Your satellite tracking list
Your tracking list is empty




NASA's NSSDC Master Catalog

Two Line Element Set (TLE):
1  2375U 63014W   19197.08775028  .00000415  00000-0  23804-1 0  9993
2  2375  86.2170  58.4062 1948920 123.0056 257.3386  8.76743590713800
Source of the keplerian elements: AFSPC